Flag for Germany Weather past 2 weeks in Bocholt, North Rhine-Westphalia, Germany

Now
70 °F

Passing clouds.


Feels Like: 70 °F
Forecast: 60 / 78 °F
Wind: 7 mph from Northeast

Location: Niederrhein

Current Time: Jul 23, 2014 at 9:24:09 AM

Latest Report: Jul 23, 2014 at 7:50 AM


Visibility: N/A

Pressure: 30.09 "Hg

Humidity: 73%

Dew point: 61 °F

Location of BocholtLocation

Historic Weather in Bocholt — Graph

°F

Bocholt temperature yesterday

Maximum temperature yesterday: 81 °F (at 6:20 PM)
Minimum temperature yesterday: 66 °F (at 4:50 AM)
Average temperature yesterday: 73 °F

Past Weeks' High & Low Weather Summary

 TemperatureHumidityPressure
High93 °F (Jul 19, 3:50 PM)100% (Jul 8, 8:50 AM)30.18 "Hg (Jul 8, 8:50 AM)
Low54 °F (Jul 15, 5:50 AM)28% (Jul 19, 3:50 PM)29.68 "Hg (Jul 9, 2:50 PM)
Average70 °F77%29.94 "Hg
* Reported Jul 8 7:20 AM — Jul 23 7:20 AM, Bocholt, Weather by CustomWeather, © 2014

Note: Actual official high and low records may vary slightly from our data, if they occured in-between our weather recording intervals... More about our weather records

Advertising

Bocholt weather history for previous 24 hours

 ConditionsComfort  
Time TempWeatherWind HumidityBarometerVisibility
7:20 AM
Jul 23
68 °FPassing clouds.6 mph78%30.09 "HgN/A
6:50 AM68 °FPassing clouds.7 mph83%30.09 "HgN/A
6:20 AM68 °FPassing clouds.6 mph83%30.09 "HgN/A
5:50 AM66 °FPassing clouds.6 mph88%30.09 "HgN/A
5:20 AM66 °FPassing clouds.5 mph88%30.07 "HgN/A
4:50 AM66 °FClear.3 mph88%30.07 "Hg10 mi
6:50 PM
Jul 22
81 °FPassing clouds.8 mph54%30.07 "HgN/A
6:20 PM81 °FSunny.7 mph51%30.07 "Hg10 mi
5:50 PM79 °FPassing clouds.8 mph54%30.07 "HgN/A
5:20 PM79 °FPassing clouds.8 mph61%30.07 "HgN/A
4:50 PM79 °FSunny.8 mph58%30.07 "Hg10 mi
4:20 PM79 °FSunny.8 mph61%30.07 "Hg10 mi
3:50 PM79 °FPassing clouds.8 mph61%30.07 "HgN/A
3:20 PM77 °FPassing clouds.9 mph65%30.07 "HgN/A
2:50 PM75 °FPassing clouds.8 mph65%30.07 "HgN/A
2:20 PM77 °FPassing clouds.9 mph57%30.07 "HgN/A
1:50 PM77 °FPassing clouds.6 mph61%30.07 "HgN/A
1:20 PM75 °FPassing clouds.8 mph65%30.07 "HgN/A
12:50 PM75 °FPassing clouds.9 mph65%30.07 "HgN/A
12:20 PM75 °FPassing clouds.8 mph65%30.07 "HgN/A
11:50 AM73 °FPassing clouds.8 mph69%30.07 "HgN/A
11:20 AM73 °FPassing clouds.8 mph74%30.07 "HgN/A
10:50 AM73 °FPassing clouds.8 mph69%30.07 "HgN/A
10:20 AM72 °FPassing clouds.7 mph73%30.07 "HgN/A
9:50 AM70 °FPassing clouds.8 mph78%30.04 "HgN/A
9:20 AM68 °FPassing clouds.7 mph88%30.04 "HgN/A
Weather by CustomWeather, © 2014

See weather overviewHow to use our weather pages